Wind_Speed
15 15 15 16 16 16 16 17 18 18 19 21 22 24 25 27 29 32 32 33 33 34 36 38 41 43 44 45 47 48 49 50 51 51 50 50 49 49 49 49 49 49 48
16 16 16 18 18 19 19 20 20 22 23 25 26 28 29 30 32 34 36 37 38 39 41 43 45 47 49 51 52 53 55 56 56 56 55 54 53 52 51 51 51 51 51
18 18 18 19 21 22 23 25 26 28 30 31 33 35 36 37 39 40 41 43 45 46 47 48 50 51 53 55 57 59 60 61 61 61 60 58 57 55 54 53 53 52 52
21 22 22 23 25 26 27 30 31 33 35 37 38 40 41 44 45 47 48 49 51 53 54 55 56 56 57 59 61 63 64 65 65 65 64 62 60 58 56 55 55 55 54
26 26 26 28 30 31 32 34 36 38 40 42 43 45 47 49 51 53 54 56 57 58 59 60 61 62 62 63 63 64 66 67 68 68 67 65 63 61 59 58 57 57 56
31 30 30 32 34 35 37 39 41 43 45 47 49 51 52 54 56 58 59 61 62 63 64 65 64 65 65 65 65 65 64 65 66 66 67 67 65 63 61 60 58 58 57
34 34 33 35 37 40 41 42 45 47 49 51 53 55 56 58 60 61 63 64 65 66 66 67 66 66 66 65 64 62 61 59 58 58 59 61 62 62 61 60 58 58 57
37 36 37 37 39 42 43 45 48 50 53 55 57 58 58 59 61 63 65 66 66 67 67 67 67 66 64 62 60 58 55 53 51 50 50 52 53 55 55 55 54 54 53
39 37 37 39 42 46 47 49 50 52 54 56 57 58 59 59 60 62 65 66 67 67 68 68 67 65 62 59 56 54 52 50 48 46 45 45 45 46 46 47 48 49 49
39 38 39 42 45 48 49 51 52 53 55 56 57 59 59 60 60 61 63 65 66 67 67 67 65 62 60 58 56 54 52 50 49 46 45 44 44 44 45 45 46 46 47
43 43 43 45 47 49 50 51 53 55 55 57 59 60 61 62 63 63 64 66 67 68 68 66 63 59 58 57 56 55 54 52 51 49 48 48 47 47 47 47 47 48 48
45 45 45 47 48 50 51 52 54 56 57 59 61 62 62 63 64 65 67 68 69 69 67 65 61 59 57 56 56 55 55 54 54 53 53 53 52 51 50 50 50 51 51
48 47 48 49 52 52 53 55 57 59 60 61 61 61 62 63 66 68 70 70 69 67 65 62 60 60 59 58 58 57 57 57 57 57 57 57 57 56 56 55 55 54 54
49 49 51 53 54 55 56 58 59 60 60 60 60 61 63 66 69 70 70 69 66 64 62 61 60 61 61 61 61 61 61 61 61 61 61 61 61 61 60 60 60 59 58
51 52 55 57 57 57 58 59 60 60 60 60 62 64 67 69 70 70 69 68 67 65 63 63 62 61 62 63 63 63 63 63 63 63 63 63 63 63 63 63 63 63 61
54 56 58 58 58 58 58 60 60 60 61 63 65 67 69 70 70 69 68 68 68 68 67 65 64 62 61 61 61 61 61 61 61 61 61 61 61 61 62 63 64 64 63
56 58 59 59 59 59 60 61 62 62 63 65 66 68 69 70 69 69 69 69 68 68 68 64 62 59 55 53 51 51 52 51 51 52 52 53 53 54 56 59 61 62 62
57 58 59 59 60 62 62 62 62 63 64 66 68 69 69 69 69 68 68 67 65 63 61 56 51 47 43 41 41 40 39 39 40 42 43 44 44 45 47 51 53 56 57
59 60 60 62 64 65 63 61 61 62 64 67 68 68 68 68 67 66 64 60 56 52 49 45 39 36 35 35 33 32 32 32 33 34 35 36 37 39 41 43 45 47 50
61 63 64 65 65 62 59 59 60 63 65 66 66 67 66 65 63 59 54 49 46 42 40 36 31 30 30 29 29 28 28 28 28 29 30 31 32 33 35 36 38 40 43
64 66 64 61 60 57 56 58 61 62 64 64 64 64 62 58 53 49 45 42 39 36 33 29 27 26 27 27 26 26 24 24 24 26 26 27 27 28 30 31 32 34 36
64 61 57 54 53 54 56 59 60 61 61 61 60 57 53 49 46 43 40 37 33 30 27 24 23 23 24 23 22 20 19 19 19 20 20 20 20 21 22 23 25 27 29
57 53 50 50 52 54 56 57 58 58 58 56 52 48 44 42 40 37 33 30 27 25 22 20 19 20 18 17 15 14 13 12 12 14 13 13 13 14 15 16 17 20 23
49 47 47 50 52 53 53 54 54 53 50 46 43 41 39 37 34 30 26 23 20 17 15 14 14 13 12 11 10 9 8 8 7 7 7 7 7 8 9 11 13 16 19
45 46 47 49 50 50 50 49 47 44 41 38 37 36 34 30 27 22 18 14 10 9 9 9 8 8 7 7 6 6 6 6 5 5 5 5 6 7 8 9 12 15 18
45 46 46 47 47 46 44 41 38 35 33 32 32 31 28 24 19 14 10 7 5 4 5 4 4 5 5 6 6 7 7 7 7 7 7 7 7 8 9 11 12 14 17
Wind_Direction
310 308 308 303 301 298 295 292 294 295 294 295 296 295 296 295 294 293 293 292 290 288 286 285 284 284 282 281 280 279 277 276 274 272 270 268 266 265 264 263 262 261 261
309 308 306 303 301 298 297 295 294 294 294 295 296 297 296 296 296 296 295 293 290 289 288 286 285 284 284 283 282 280 278 277 275 273 271 269 266 265 264 263 262 261 260
300 300 299 298 296 296 296 295 294 295 294 293 294 295 295 294 294 294 294 292 290 289 287 287 286 285 284 283 282 281 280 278 277 274 272 270 267 265 263 262 261 260 260
294 294 295 294 293 293 294 293 294 295 294 294 293 293 294 294 293 292 291 290 289 288 287 286 285 284 283 282 281 281 280 279 278 275 273 270 267 264 262 261 260 260 259
288 289 292 293 293 294 294 295 295 294 294 293 293 293 293 293 293 292 290 289 288 288 287 285 284 284 283 282 282 281 280 279 277 274 272 269 266 264 261 260 259 259 258
284 285 290 293 294 294 295 296 296 295 294 293 292 291 291 291 291 290 289 288 288 287 287 286 285 284 284 284 284 283 281 279 276 273 270 267 264 262 260 259 258 258 257
279 282 287 289 292 294 295 297 296 295 294 292 291 290 289 289 288 287 286 285 285 286 286 286 286 286 286 285 285 283 281 279 277 274 270 266 263 261 259 258 257 256 255
279 281 286 290 293 294 295 296 295 295 293 292 291 290 289 289 288 288 287 286 286 286 287 288 287 287 287 286 285 283 280 278 276 273 270 266 262 260 258 256 254 253 253
287 286 288 292 294 295 296 296 296 295 294 293 292 292 291 289 289 289 290 290 290 290 290 290 289 289 288 286 284 280 278 275 272 270 268 265 261 258 256 254 252 251 251
294 293 294 296 296 296 297 296 297 296 295 295 294 293 292 291 290 289 290 291 292 292 291 291 290 289 287 284 281 277 274 272 270 268 266 263 260 258 256 254 252 251 251
299 299 297 297 296 297 298 297 298 297 296 295 294 293 293 293 292 292 292 292 293 292 292 292 290 287 283 280 277 274 272 270 269 267 266 264 261 259 257 255 253 252 252
297 299 298 297 297 299 299 298 297 296 295 294 293 293 294 294 295 295 295 294 294 293 293 292 289 286 282 279 277 274 272 270 268 266 265 264 262 260 258 256 255 253 252
296 297 297 298 299 299 299 298 297 296 294 294 295 295 296 297 297 298 297 296 296 294 293 291 288 286 284 282 279 276 273 271 269 267 265 264 263 261 260 258 257 255 254
295 296 298 300 301 300 299 298 297 296 296 296 296 297 298 298 299 298 298 296 295 293 291 289 288 286 285 283 280 278 275 273 270 268 266 264 263 261 260 258 257 256 254
293 296 298 300 300 299 299 298 298 298 297 298 298 299 299 299 299 298 297 296 294 292 290 289 287 286 284 282 280 278 276 273 271 269 267 265 263 261 259 258 256 255 254
294 297 298 298 298 297 298 299 299 298 298 299 300 301 301 300 300 298 297 296 295 293 291 290 288 287 285 282 280 278 275 273 271 269 267 265 262 260 258 256 255 254 253
295 296 296 296 296 296 297 298 298 298 299 301 302 302 301 301 299 298 297 296 295 294 292 290 289 288 286 284 282 279 277 274 271 268 267 264 262 259 257 254 253 251 250
295 294 295 295 296 297 297 298 298 299 301 302 303 302 302 300 299 298 297 296 295 294 293 292 291 289 286 285 284 282 279 275 271 267 265 262 260 257 254 252 250 248 247
294 294 294 295 296 296 297 298 300 302 303 303 303 302 302 301 299 298 297 297 296 295 295 294 291 288 287 287 286 284 281 276 272 268 264 261 258 256 254 251 248 245 243
292 292 292 293 295 297 299 300 302 303 303 303 303 303 302 301 300 300 299 298 297 296 295 294 291 288 289 288 287 285 281 277 273 268 263 259 256 254 252 250 247 243 240
290 291 292 294 297 300 301 302 303 303 304 304 304 304 303 303 302 302 301 300 298 296 294 292 292 290 290 289 288 287 283 277 272 268 263 259 256 253 251 248 244 240 236
289 291 294 298 302 303 303 303 304 305 305 305 305 305 305 305 305 304 303 300 297 296 294 292 292 292 292 292 291 289 283 277 272 269 265 261 258 254 249 244 239 234 230
291 295 300 303 304 303 304 305 306 306 307 307 307 308 308 309 308 306 303 299 296 294 293 293 294 295 298 297 296 292 288 284 275 269 267 262 256 249 244 239 232 225 221
300 303 304 304 303 304 305 306 307 308 308 309 310 312 313 313 312 310 307 301 297 294 294 296 297 301 304 305 308 305 300 293 283 276 270 258 251 244 238 232 226 220 214
304 304 304 304 304 306 307 307 308 309 310 312 314 317 319 319 318 316 313 309 303 299 300 303 308 315 323 332 338 338 331 322 307 296 286 268 256 249 242 234 226 219 214
305 305 305 305 306 307 308 308 309 311 313 316 319 321 323 324 326 328 329 332 331 330 334 343 359 9 8 6 0 353 345 336 324 308 292 278 264 254 245 239 231 225 219
Height
5855 5854 5853 5852 5852 5851 5851 5850 5849 5848 5847 5846 5844 5843 5842 5840 5838 5835 5834 5833 5832 5830 5829 5827 5826 5824 5823 5822 5821 5821 5820 5819 5819 5818 5818 5819 5820 5821 5822 5822 5823 5825 5827
5853 5852 5851 5849 5848 5848 5847 5846 5845 5844 5842 5841 5839 5837 5836 5834 5831 5829 5826 5824 5823 5821 5819 5817 5815 5814 5812 5811 5809 5808 5807 5807 5806 5806 5806 5806 5807 5808 5809 5810 5811 5813 5815
5850 5849 5848 5847 5845 5844 5843 5841 5840 5839 5837 5835 5833 5831 5828 5826 5824 5821 5818 5815 5812 5810 5808 5806 5804 5802 5800 5798 5796 5794 5793 5792 5792 5792 5792 5793 5794 5795 5796 5797 5799 5800 5802
5846 5845 5844 5842 5840 5839 5838 5836 5834 5832 5830 5827 5825 5822 5820 5817 5814 5811 5808 5805 5802 5799 5796 5794 5791 5789 5786 5784 5782 5779 5777 5776 5775 5775 5776 5777 5778 5780 5781 5783 5785 5787 5789
5841 5839 5838 5836 5833 5832 5831 5828 5826 5824 5821 5818 5816 5813 5810 5806 5803 5799 5795 5792 5788 5785 5782 5779 5777 5774 5771 5769 5767 5764 5762 5759 5758 5758 5758 5759 5761 5763 5765 5768 5770 5773 5775
5835 5833 5832 5828 5826 5824 5822 5820 5817 5814 5811 5807 5804 5801 5798 5795 5790 5786 5782 5778 5774 5770 5766 5763 5760 5758 5755 5753 5750 5747 5744 5742 5740 5739 5740 5741 5743 5745 5748 5751 5755 5758 5761
5827 5825 5824 5822 5818 5815 5812 5810 5807 5804 5800 5795 5792 5789 5786 5782 5777 5772 5768 5764 5759 5755 5751 5747 5743 5740 5738 5735 5733 5730 5728 5725 5723 5721 5721 5722 5724 5727 5731 5735 5739 5742 5745
5819 5817 5815 5813 5810 5806 5803 5800 5796 5793 5788 5783 5778 5774 5771 5768 5762 5757 5751 5747 5744 5740 5735 5731 5726 5723 5720 5718 5716 5714 5712 5710 5708 5706 5706 5706 5708 5710 5714 5718 5722 5727 5731
5810 5808 5806 5803 5800 5796 5793 5788 5784 5780 5775 5770 5764 5760 5755 5752 5748 5743 5736 5731 5727 5723 5719 5714 5709 5706 5703 5701 5699 5698 5697 5696 5695 5694 5693 5693 5694 5696 5699 5703 5708 5712 5717
5800 5798 5796 5793 5789 5784 5781 5776 5771 5766 5761 5756 5750 5745 5740 5736 5732 5729 5723 5716 5711 5707 5702 5697 5693 5689 5686 5684 5683 5682 5681 5681 5681 5681 5681 5681 5683 5685 5687 5691 5695 5699 5703
5791 5788 5786 5782 5777 5773 5768 5763 5758 5752 5747 5742 5736 5730 5725 5720 5715 5712 5708 5703 5697 5691 5685 5680 5676 5673 5670 5667 5666 5666 5665 5666 5666 5667 5667 5668 5670 5672 5675 5678 5682 5686 5690
5782 5779 5775 5770 5765 5761 5756 5750 5745 5739 5733 5728 5721 5716 5710 5704 5699 5694 5690 5685 5680 5675 5668 5663 5659 5655 5653 5651 5649 5649 5649 5649 5650 5651 5652 5653 5655 5658 5660 5664 5667 5671 5675
5771 5769 5763 5759 5754 5748 5742 5737 5731 5725 5719 5713 5707 5701 5695 5689 5683 5677 5671 5666 5661 5657 5651 5647 5641 5637 5635 5633 5632 5631 5632 5632 5633 5633 5635 5636 5638 5641 5644 5648 5652 5656 5660
5760 5756 5751 5746 5740 5735 5729 5723 5716 5711 5705 5699 5693 5687 5681 5674 5667 5660 5653 5648 5643 5640 5635 5631 5625 5620 5617 5615 5614 5612 5612 5613 5613 5614 5615 5617 5620 5623 5626 5630 5634 5638 5643
5748 5744 5739 5733 5727 5721 5715 5708 5702 5696 5690 5684 5678 5672 5665 5658 5650 5643 5636 5629 5624 5621 5618 5613 5609 5603 5599 5596 5594 5592 5592 5592 5592 5592 5594 5597 5599 5602 5606 5610 5615 5620 5625
5737 5731 5726 5720 5714 5708 5702 5695 5689 5682 5676 5670 5663 5656 5648 5640 5633 5625 5618 5611 5604 5600 5597 5594 5588 5584 5579 5575 5573 5571 5570 5570 5570 5571 5572 5575 5578 5582 5585 5589 5594 5600 5606
5724 5718 5712 5706 5701 5695 5688 5682 5675 5668 5662 5655 5647 5640 5632 5623 5616 5608 5600 5593 5586 5580 5576 5574 5568 5564 5559 5556 5553 5551 5550 5550 5550 5551 5552 5554 5558 5561 5565 5569 5574 5579 5586
5710 5704 5698 5692 5686 5681 5674 5667 5660 5654 5647 5639 5631 5623 5615 5606 5599 5590 5583 5575 5568 5562 5557 5554 5551 5547 5543 5540 5538 5536 5535 5534 5534 5535 5536 5538 5540 5543 5546 5550 5555 5560 5566
5696 5689 5683 5678 5672 5666 5660 5652 5646 5639 5632 5623 5615 5606 5598 5590 5582 5573 5565 5559 5552 5547 5542 5539 5537 5534 5531 5528 5526 5525 5523 5522 5522 5522 5523 5525 5527 5529 5531 5534 5538 5543 5549
5681 5675 5669 5663 5657 5652 5645 5638 5632 5625 5617 5608 5599 5590 5581 5573 5565 5557 5551 5544 5539 5535 5531 5528 5526 5524 5522 5519 5517 5516 5514 5513 5512 5512 5512 5513 5515 5517 5519 5522 5526 5530 5535
5667 5661 5655 5649 5643 5638 5632 5625 5618 5611 5603 5594 5584 5575 5566 5558 5550 5543 5538 5533 5528 5524 5521 5519 5517 5516 5514 5512 5510 5508 5506 5505 5504 5503 5503 5504 5505 5507 5509 5511 5514 5518 5523
5653 5647 5641 5636 5631 5625 5619 5612 5605 5597 5588 5579 5570 5561 5553 5545 5538 5532 5527 5522 5518 5515 5513 5512 5510 5509 5507 5505 5503 5501 5500 5499 5498 5497 5496 5497 5498 5499 5501 5503 5506 5510 5514
5639 5634 5629 5624 5619 5614 5606 5599 5591 5583 5574 5566 5557 5550 5542 5535 5528 5522 5517 5513 5510 5508 5507 5506 5505 5503 5502 5500 5498 5497 5495 5494 5493 5492 5492 5492 5493 5494 5495 5497 5500 5503 5508
5627 5623 5618 5613 5607 5601 5594 5587 5578 5570 5562 5554 5547 5540 5533 5526 5520 5514 5510 5507 5505 5503 5502 5502 5501 5500 5498 5497 5495 5494 5492 5491 5490 5489 5489 5490 5490 5491 5492 5494 5497 5500 5504
5617 5612 5607 5601 5595 5589 5582 5575 5567 5560 5553 5546 5539 5532 5526 5520 5514 5509 5505 5503 5502 5501 5501 5500 5500 5498 5497 5495 5494 5492 5491 5490 5489 5488 5488 5488 5488 5489 5490 5492 5494 5497 5501
5607 5601 5596 5590 5584 5577 5571 5564 5558 5552 5546 5540 5533 5527 5521 5516 5511 5507 5504 5502 5502 5501 5501 5500 5500 5499 5497 5496 5494 5492 5491 5489 5488 5487 5486 5486 5486 5487 5488 5489 5491 5494 5497